Wind_Speed
48 47 48 46 46 40 42 40 42 42 41 42 43 42 45 46 45 42 39 38 37 34 33 31 33 36 37
47 49 48 51 45 43 40 40 42 46 46 44 43 47 43 43 42 41 40 38 36 34 32 34 35 31 33
48 47 47 45 46 44 40 44 48 43 40 40 41 41 39 41 40 41 41 38 35 33 31 32 34 34 33
43 44 44 46 38 41 50 45 46 42 44 44 40 38 38 39 39 41 37 37 31 29 29 29 29 33 34
45 45 37 43 43 46 45 50 51 42 44 43 40 37 43 44 42 36 37 32 32 30 28 29 29 30 30
43 41 41 45 46 43 45 47 53 41 41 52 45 47 44 41 38 35 34 37 39 38 37 34 34 32 32
42 43 46 46 47 49 47 46 50 53 45 53 40 44 36 39 33 35 36 33 33 33 33 31 32 35 31
40 43 45 48 47 46 48 53 50 44 36 43 40 41 47 40 36 36 34 34 32 32 30 31 31 34 37
40 41 40 40 39 42 44 42 46 40 33 42 41 41 44 43 43 32 24 20 26 25 27 28 27 27 33
45 43 40 40 35 35 40 41 43 44 36 37 41 38 39 33 15 18 33 35 28 20 22 27 27 28 33
42 42 41 39 39 40 40 40 42 44 44 36 39 38 34 36 32 31 35 28 26 22 20 26 27 27 28
41 41 42 43 43 40 38 36 35 38 36 31 38 36 38 31 32 31 30 21 22 13 16 21 23 24 22
40 42 43 42 41 40 37 33 32 30 26 22 23 22 25 26 29 29 20 18 7 10 16 19 22 25 27
40 42 42 41 40 37 36 30 25 23 21 14 14 14 15 21 17 17 12 10 4 19 28 33 34 34 34
42 42 41 40 39 38 29 29 26 28 28 24 18 6 10 15 8 4 4 5 15 22 27 32 32 35 39
40 40 38 36 35 32 28 25 25 27 27 27 17 10 5 7 10 8 12 18 19 25 28 32 31 29 32
39 35 32 34 32 30 28 26 26 25 24 24 18 13 13 11 15 14 23 25 27 31 32 34 37 37 37
Wind_Direction
298 301 301 304 304 302 298 299 297 296 294 291 290 287 288 287 286 284 281 278 275 275 271 268 265 258 256
298 301 302 304 303 303 301 300 298 296 292 291 289 290 287 287 286 283 279 277 275 273 273 268 263 260 256
298 299 299 301 302 301 302 304 299 296 296 297 293 289 286 286 284 284 282 276 274 276 274 268 260 258 257
297 298 299 301 301 305 307 305 301 300 299 295 292 291 288 287 282 283 281 281 274 281 269 266 259 255 253
298 300 305 306 306 306 302 303 299 302 300 297 297 293 289 291 288 283 287 280 278 279 271 269 257 248 247
308 309 306 305 304 304 301 300 299 302 301 296 298 297 294 295 292 287 285 281 279 277 268 267 252 248 243
306 304 303 303 302 300 299 296 294 297 299 292 297 294 292 295 287 289 285 280 277 275 268 256 252 243 241
303 302 300 302 301 299 298 296 295 296 296 289 299 290 299 293 291 291 283 282 277 274 258 249 250 240 234
306 303 301 299 299 300 298 298 296 296 298 295 298 294 301 297 301 298 284 273 264 270 247 240 242 243 236
311 310 310 312 307 302 299 295 296 297 299 294 296 297 300 298 301 286 301 302 296 283 248 245 236 239 240
314 314 314 311 310 310 307 301 295 293 299 294 293 293 289 292 298 298 302 307 299 290 258 232 227 235 240
316 316 316 317 317 316 315 311 306 301 307 305 294 292 290 289 297 300 302 307 312 283 252 228 224 220 222
318 319 321 325 330 330 332 330 325 323 321 312 296 289 290 293 295 303 310 327 318 152 160 173 170 175 178
321 325 330 333 335 342 339 345 342 340 333 328 317 312 326 317 298 307 320 314 140 130 145 145 145 150 158
330 332 334 336 342 347 344 347 345 340 344 345 340 272 31 12 353 343 327 136 132 125 140 125 126 128 131
336 335 333 342 341 339 347 349 344 344 352 353 3 8 323 22 68 90 124 124 120 121 124 123 115 121 127
339 337 342 343 336 339 342 348 351 354 -0 2 16 47 56 52 67 105 119 120 121 113 113 116 115 114 122
Height
1340 1334 1326 1322 1317 1315 1310 1303 1298 1293 1288 1283 1278 1274 1270 1265 1261 1258 1256 1256 1255 1254 1253 1252 1254 1256 1254
1334 1326 1320 1314 1308 1303 1298 1293 1288 1281 1277 1272 1268 1263 1258 1253 1248 1245 1244 1243 1243 1243 1243 1244 1244 1241 1243
1327 1322 1314 1308 1299 1293 1287 1281 1275 1270 1266 1262 1256 1250 1245 1241 1237 1234 1231 1230 1231 1230 1229 1230 1230 1232 1234
1322 1314 1307 1298 1293 1285 1273 1269 1262 1260 1256 1248 1242 1238 1234 1230 1227 1222 1219 1218 1219 1218 1217 1218 1218 1222 1223
1313 1305 1297 1290 1284 1277 1270 1257 1248 1252 1242 1234 1233 1227 1222 1219 1215 1212 1209 1207 1207 1208 1208 1208 1208 1211 1215
1304 1296 1288 1284 1276 1270 1261 1252 1234 1244 1235 1221 1225 1214 1209 1207 1203 1201 1199 1197 1195 1194 1195 1197 1199 1201 1203
1298 1291 1282 1276 1269 1259 1251 1243 1233 1226 1228 1208 1212 1203 1201 1196 1194 1192 1189 1186 1184 1183 1183 1185 1188 1192 1195
1293 1283 1276 1267 1261 1252 1242 1230 1223 1219 1219 1202 1201 1193 1190 1185 1183 1180 1176 1174 1173 1172 1172 1174 1176 1180 1186
1283 1274 1267 1260 1253 1243 1232 1225 1211 1208 1209 1200 1191 1184 1180 1174 1170 1167 1166 1162 1160 1159 1161 1164 1167 1170 1173
1269 1262 1255 1248 1243 1236 1226 1216 1208 1197 1199 1193 1184 1180 1167 1166 1160 1158 1155 1154 1150 1148 1150 1153 1157 1160 1162
1260 1252 1245 1238 1232 1225 1219 1211 1201 1191 1186 1184 1177 1172 1168 1159 1155 1153 1150 1145 1143 1140 1141 1145 1149 1152 1154
1254 1246 1238 1229 1221 1214 1207 1200 1193 1185 1177 1174 1168 1165 1160 1155 1150 1147 1144 1141 1137 1133 1133 1135 1140 1146 1150
1250 1241 1233 1223 1214 1204 1197 1190 1183 1177 1171 1167 1163 1160 1157 1152 1147 1143 1141 1137 1133 1130 1129 1130 1136 1141 1146
1245 1236 1227 1218 1209 1201 1193 1185 1179 1173 1168 1164 1160 1157 1153 1148 1144 1141 1141 1140 1136 1133 1130 1132 1137 1141 1145
1240 1231 1223 1215 1207 1199 1194 1187 1181 1173 1166 1161 1156 1154 1152 1148 1144 1142 1142 1141 1141 1139 1137 1138 1142 1146 1150
1237 1230 1222 1214 1207 1201 1195 1188 1181 1175 1168 1162 1155 1153 1151 1152 1148 1146 1146 1147 1147 1146 1146 1146 1153 1159 1161
1235 1228 1221 1214 1208 1201 1194 1188 1182 1177 1172 1166 1159 1155 1154 1154 1153 1152 1152 1153 1154 1154 1156 1158 1163 1170 1173